EN

Hourly Weather Bolton

Today, 19 January, Tuesday

Time Temperature Precipitation Wind Pressure Humidity
00:00 +5°C° 0 mm 3 mps 736 mmHg 97%
01:00 +7°C° 0.6 mm 3 mps 735 mmHg 98%
02:00 +7°C° 0.6 mm 3 mps 734 mmHg 98%
03:00 +6°C° 0.6 mm 4 mps 733 mmHg 98%
04:00 +7°C° 1.4 mm 3 mps 733 mmHg 98%
05:00 +7°C° 1.4 mm 3 mps 732 mmHg 98%
06:00 +7°C° 0 mm 3 mps 733 mmHg 98%
07:00 +7°C° 1.4 mm 3 mps 733 mmHg 98%
08:00 +7°C° 1.4 mm 3 mps 732 mmHg 98%
09:00 +7°C° 1.4 mm 3 mps 732 mmHg 98%
10:00 +6°C° 0.7 mm 4 mps 732 mmHg 95%
11:00 +7°C° 0.7 mm 6 mps 732 mmHg 92%
12:00 +8°C° 0.7 mm 7 mps 731 mmHg 89%
13:00 +8°C° 0.8 mm 7 mps 730 mmHg 90%
14:00 +6°C° 0.8 mm 7 mps 729 mmHg 90%
15:00 +6°C° 0.8 mm 7 mps 728 mmHg 91%
16:00 +8°C° 0.8 mm 7 mps 727 mmHg 91%
17:00 +8°C° 0.8 mm 7 mps 727 mmHg 91%
18:00 +8°C° 0.8 mm 7 mps 726 mmHg 91%
19:00 +8°C° 0.7 mm 7 mps 725 mmHg 91%
20:00 +8°C° 0.7 mm 6 mps 725 mmHg 92%
21:00 +8°C° 0.7 mm 6 mps 724 mmHg 93%
22:00 +8°C° 0.6 mm 6 mps 723 mmHg 92%
23:00 +8°C° 0.6 mm 6 mps 723 mmHg 92%

Tomorrow, 20 January, Wednesday

Time Temperature Precipitation Wind Pressure Humidity
00:00 +8°C° 0.6 mm 6 mps 722 mmHg 92%
01:00 +8°C° 0.2 mm 6 mps 722 mmHg 91%
02:00 +8°C° 0.2 mm 6 mps 721 mmHg 91%
03:00 +8°C° 0.2 mm 6 mps 721 mmHg 90%
04:00 +8°C° 0.2 mm 6 mps 721 mmHg 91%
05:00 +8°C° 0.2 mm 6 mps 721 mmHg 91%
06:00 +8°C° 0.2 mm 6 mps 720 mmHg 92%
07:00 +8°C° 0.8 mm 6 mps 720 mmHg 92%
08:00 +8°C° 0.8 mm 6 mps 719 mmHg 93%
09:00 +8°C° 0.8 mm 5 mps 719 mmHg 94%
10:00 +8°C° 1.3 mm 6 mps 718 mmHg 93%
11:00 +8°C° 1.3 mm 6 mps 718 mmHg 92%
12:00 +8°C° 1.3 mm 7 mps 717 mmHg 91%
13:00 +9°C° 0.8 mm 7 mps 716 mmHg 89%
14:00 +9°C° 0.8 mm 8 mps 716 mmHg 88%
15:00 +9°C° 0.8 mm 8 mps 715 mmHg 86%
16:00 +8°C° 0.5 mm 9 mps 714 mmHg 85%
17:00 +8°C° 0.5 mm 9 mps 714 mmHg 84%
18:00 +7°C° 0.5 mm 9 mps 713 mmHg 82%
19:00 +7°C° 0.4 mm 8 mps 712 mmHg 83%
20:00 +8°C° 0.4 mm 7 mps 711 mmHg 84%
21:00 +6°C° 0.4 mm 7 mps 711 mmHg 85%
22:00 +5°C° 1.9 mm 8 mps 710 mmHg 88%
23:00 +2°C° 1.9 mm 9 mps 710 mmHg 90%

Day after tomorrow, 21 January, Thursday

Time Temperature Precipitation Wind Pressure Humidity
00:00 +1°C° 1.9 mm 10 mps 709 mmHg 93%
01:00 +1°C° 0.6 mm 10 mps 710 mmHg 86%
02:00 +1°C° 0.6 mm 10 mps 710 mmHg 80%
03:00 +1°C° 0.6 mm 11 mps 711 mmHg 74%
04:00 +1°C° 0.2 mm 10 mps 712 mmHg 73%
05:00 0°C° 0.2 mm 10 mps 712 mmHg 72%
06:00 0°C° 0.2 mm 10 mps 713 mmHg 71%
07:00 0°C° 0 mm 10 mps 712 mmHg 70%
08:00 0°C° 0 mm 10 mps 712 mmHg 70%
09:00 0°C° 0 mm 10 mps 711 mmHg 70%
10:00 0°C° 0.4 mm 10 mps 711 mmHg 74%
11:00 +1°C° 0.4 mm 11 mps 711 mmHg 77%
12:00 0°C° 0.4 mm 12 mps 711 mmHg 81%
13:00 0°C° 0.6 mm 12 mps 711 mmHg 83%
14:00 0°C° 0.6 mm 12 mps 712 mmHg 86%
15:00 -1°C° 0.6 mm 12 mps 712 mmHg 88%
16:00 0°C° 0.6 mm 12 mps 713 mmHg 85%
17:00 +1°C° 0.6 mm 11 mps 713 mmHg 83%
18:00 +1°C° 0.6 mm 10 mps 714 mmHg 80%
19:00 +1°C° 0.1 mm 10 mps 715 mmHg 78%
20:00 +1°C° 0.1 mm 9 mps 715 mmHg 75%
21:00 +1°C° 0.1 mm 9 mps 715 mmHg 73%
22:00 +1°C° 0.1 mm 9 mps 716 mmHg 73%
23:00 +1°C° 0.1 mm 9 mps 716 mmHg 73%

22 January, Friday

Time Temperature Precipitation Wind Pressure Humidity
00:00 +1°C° 0.1 mm 9 mps 717 mmHg 72%
01:00 +1°C° 0.1 mm 9 mps 717 mmHg 72%
02:00 +1°C° 0.1 mm 10 mps 718 mmHg 72%
03:00 +1°C° 0.1 mm 10 mps 718 mmHg 72%
04:00 +1°C° 0.1 mm 9 mps 718 mmHg 72%
05:00 0°C° 0.1 mm 9 mps 719 mmHg 72%
06:00 0°C° 0.1 mm 9 mps 719 mmHg 72%
07:00 0°C° 0.1 mm 9 mps 719 mmHg 73%
08:00 0°C° 0.1 mm 9 mps 720 mmHg 73%
09:00 0°C° 0.1 mm 9 mps 720 mmHg 73%
10:00 +1°C° 0.1 mm 9 mps 721 mmHg 72%
11:00 +1°C° 0.1 mm 9 mps 721 mmHg 71%
12:00 +1°C° 0.1 mm 9 mps 721 mmHg 70%
13:00 +1°C° 0.2 mm 9 mps 722 mmHg 70%
14:00 +1°C° 0.2 mm 9 mps 722 mmHg 70%
15:00 +1°C° 0.2 mm 8 mps 722 mmHg 71%
16:00 0°C° 0.2 mm 8 mps 723 mmHg 73%
17:00 0°C° 0.2 mm 7 mps 724 mmHg 75%
18:00 +1°C° 0.2 mm 6 mps 724 mmHg 78%
19:00 0°C° 0.1 mm 5 mps 724 mmHg 80%
20:00 0°C° 0.1 mm 4 mps 725 mmHg 82%
21:00 0°C° 0.1 mm 3 mps 725 mmHg 84%
22:00 +1°C° 0 mm 2 mps 725 mmHg 84%
23:00 +1°C° 0 mm 2 mps 725 mmHg 83%

23 January, Saturday

Time Temperature Precipitation Wind Pressure Humidity
00:00 +1°C° 0 mm 1 mps 726 mmHg 83%
01:00 +1°C° 0 mm 1 mps 726 mmHg 83%
02:00 +1°C° 0 mm 1 mps 726 mmHg 83%
03:00 0°C° 0 mm 0 mps 726 mmHg 83%
04:00 0°C° 0 mm 0 mps 726 mmHg 83%
05:00 0°C° 0 mm 0 mps 726 mmHg 83%
06:00 0°C° 0 mm 0 mps 726 mmHg 83%
07:00 0°C° 0 mm 0 mps 727 mmHg 83%
08:00 +1°C° 0 mm 1 mps 727 mmHg 83%
09:00 +1°C° 0 mm 1 mps 728 mmHg 82%
10:00 +2°C° 0.1 mm 1 mps 728 mmHg 80%
11:00 +2°C° 0.1 mm 2 mps 728 mmHg 77%
12:00 +2°C° 0.1 mm 2 mps 728 mmHg 74%
13:00 +2°C° 0.1 mm 2 mps 728 mmHg 72%
14:00 +2°C° 0.1 mm 2 mps 728 mmHg 71%
15:00 +2°C° 0.1 mm 2 mps 728 mmHg 70%
16:00 +2°C° 0 mm 2 mps 728 mmHg 71%
17:00 +1°C° 0 mm 2 mps 729 mmHg 73%
18:00 +1°C° 0 mm 1 mps 729 mmHg 74%
19:00 -1°C° 0 mm 2 mps 729 mmHg 75%
20:00 -1°C° 0 mm 2 mps 729 mmHg 76%
21:00 -1°C° 0 mm 2 mps 729 mmHg 77%
22:00 -1°C° 0 mm 2 mps 729 mmHg 78%
23:00 -2°C° 0 mm 2 mps 729 mmHg 78%

24 January, Sunday

Time Temperature Precipitation Wind Pressure Humidity
00:00 -2°C° 0 mm 2 mps 729 mmHg 79%
01:00 -2°C° 0 mm 2 mps 729 mmHg 80%
02:00 -2°C° 0 mm 2 mps 729 mmHg 81%
03:00 -2°C° 0 mm 2 mps 729 mmHg 82%
04:00 -2°C° 0.1 mm 2 mps 729 mmHg 84%
05:00 -2°C° 0.1 mm 2 mps 729 mmHg 86%
06:00 -2°C° 0.1 mm 2 mps 729 mmHg 88%
07:00 -2°C° 0.2 mm 2 mps 729 mmHg 90%
08:00 -1°C° 0.2 mm 2 mps 730 mmHg 91%
09:00 -1°C° 0.2 mm 2 mps 730 mmHg 93%
10:00 -1°C° 0.3 mm 2 mps 730 mmHg 89%
11:00 +1°C° 0.3 mm 2 mps 731 mmHg 84%
12:00 +2°C° 0.3 mm 2 mps 731 mmHg 80%
13:00 +2°C° 0 mm 2 mps 731 mmHg 76%
14:00 +1°C° 0 mm 3 mps 731 mmHg 73%
15:00 +1°C° 0 mm 3 mps 731 mmHg 69%
16:00 +1°C° 0 mm 3 mps 731 mmHg 72%
17:00 0°C° 0 mm 3 mps 730 mmHg 74%
18:00 0°C° 0 mm 3 mps 730 mmHg 77%
19:00 -1°C° 0 mm 4 mps 730 mmHg 78%
20:00 -1°C° 0 mm 4 mps 730 mmHg 78%
21:00 -2°C° 0 mm 4 mps 729 mmHg 79%
22:00 -1°C° 0.5 mm 5 mps 729 mmHg 83%
23:00 -1°C° 0.5 mm 5 mps 729 mmHg 87%
Show more